Beverly, MA

10:56 AM EDT on May 28, 2017 (GMT -0400)
Beverly Municipal

Weather History for KBVY - March, 2013

Change the Weather History Date:

Thursday, March 21, 2013

  Actual Average Record
Temperature  
Mean Temperature 30 °F -  
Max Temperature 36 °F 43 °F 79 °F (2012)
Min Temperature 26 °F 27 °F 11 °F (1986)
Degree Days  
Heating Degree Days 35    
Moisture  
Dew Point 23 °F    
Average Humidity 74    
Maximum Humidity 93    
Minimum Humidity 43    
Precipitation  
Precipitation 0.01 in - - ()
Sea Level Pressure  
Sea Level Pressure 29.67 in    
Wind  
Wind Speed 3 mph (SW)    
Max Wind Speed 8 mph    
Max Gust Speed -    
Visibility 7 miles    
Events Snow    
Averages and records for this station are not official NWS values.
T = Trace of Precipitation, MM = Missing Value Source: NWS Daily Summary

Daily Weather History Graph

Daily Weather History Graph

Search for Another Location

Airport or City:

Trip Planner

Search our weather history database for the weather conditions in past years. The results will help you decide how hot, cold, wet, or windy it might be!

Date:

Astronomy

Mar. 21, 2013 Rise Set
Actual Time 6:44 AM EDT 6:57 PM EDT
Civil Twilight 6:16 AM EDT 7:25 PM EDT
Nautical Twilight 5:43 AM EDT 7:58 PM EDT
Astronomical Twilight 5:10 AM EDT 8:32 PM EDT
Moon 1:18 PM EDT (3/21) 3:10 AM EDT (3/21)
Length of Visible Light 13h 08m
Length of Day
12h 12m
Waxing Gibbous, 68% of the Moon is Illuminated
Mar 21
Waxing Gibbous
Mar 27
Full
Apr 3
Last Quarter
Apr 10
New
Apr 18
First Quarter

Hourly Weather History & Observations

Time (EDT) Temp. Windchill Dew Point Humidity Pressure Visibility Wind Dir Wind Speed Gust Speed Precip Events Conditions
12:53 AM 28.0 °F 22.8 °F 16.0 °F 61% 29.79 in 10.0 mi WSW 4.6 mph - N/A   Clear
1:53 AM 27.0 °F 21.6 °F 17.1 °F 66% 29.80 in 10.0 mi WSW 4.6 mph - N/A   Clear
2:53 AM 26.1 °F 19.4 °F 17.1 °F 69% 29.79 in 10.0 mi SW 5.8 mph - N/A   Clear
3:53 AM 27.0 °F 21.6 °F 15.1 °F 61% 29.78 in 10.0 mi West 4.6 mph - N/A   Clear
4:53 AM 27.0 °F 21.6 °F 15.1 °F 61% 29.78 in 10.0 mi West 4.6 mph - N/A   Partly Cloudy
5:53 AM 27.0 °F 23.0 °F 16.0 °F 63% 29.77 in 10.0 mi West 3.5 mph - N/A   Overcast
6:53 AM 26.1 °F - 16.0 °F 66% 29.77 in 10.0 mi Calm Calm - N/A   Overcast
7:53 AM 28.0 °F 24.2 °F 17.1 °F 63% 29.78 in 10.0 mi WNW 3.5 mph - N/A   Mostly Cloudy
8:53 AM 28.9 °F 25.2 °F 17.1 °F 61% 29.77 in 10.0 mi West 3.5 mph - N/A   Mostly Cloudy
9:53 AM 30.9 °F - 17.1 °F 57% 29.76 in 10.0 mi Calm Calm - N/A   Overcast
10:53 AM 34.0 °F - 14.0 °F 44% 29.75 in 10.0 mi Calm Calm - N/A   Overcast
11:53 AM 33.1 °F - 12.9 °F 43% 29.73 in 10.0 mi Calm Calm - N/A   Overcast
12:53 PM 32.0 °F 26.4 °F 17.1 °F 54% 29.70 in 10.0 mi SSW 5.8 mph - N/A   Overcast
1:53 PM 34.0 °F - 16.0 °F 48% 29.68 in 10.0 mi Calm Calm - N/A   Overcast
2:53 PM 34.0 °F 29.8 °F 17.1 °F 50% 29.64 in 8.0 mi NW 4.6 mph - 0.00 in Snow Light Snow
3:53 PM 34.0 °F 27.2 °F 23.0 °F 64% 29.62 in 10.0 mi SSE 8.1 mph - 0.00 in   Overcast
4:53 PM 33.1 °F 27.7 °F 24.1 °F 70% 29.60 in 10.0 mi SE 5.8 mph - N/A   Overcast
5:29 PM 33.8 °F 28.6 °F 24.8 °F 70% 29.62 in 2.5 mi WSW 5.8 mph - 0.00 in Snow Light Snow
5:37 PM 32.0 °F 27.5 °F 24.8 °F 75% 29.62 in 1.0 mi WSW 4.6 mph - 0.00 in Snow Light Snow
5:51 PM 32.0 °F - 26.6 °F 80% 29.62 in 2.5 mi Calm Calm - 0.00 in Snow Light Snow
5:53 PM 32.0 °F - 26.1 °F 79% 29.62 in 3.0 mi Calm Calm - 0.00 in Snow Light Snow
6:22 PM 32.0 °F - 24.8 °F 75% 29.63 in 2.5 mi Calm Calm - 0.00 in Snow Light Snow
6:32 PM 32.0 °F - 26.6 °F 80% 29.63 in 1.0 mi Calm Calm - 0.00 in Snow Light Snow
6:39 PM 30.2 °F - 26.6 °F 86% 29.63 in 0.8 mi Calm Calm - 0.00 in Snow Light Snow
6:53 PM 30.9 °F - 27.0 °F 85% 29.62 in 1.2 mi Calm Calm - 0.01 in Snow Light Snow
7:05 PM 30.2 °F - 26.6 °F 86% 29.63 in 3.0 mi Calm Calm - 0.00 in Snow Light Snow
7:15 PM 30.2 °F 26.7 °F 26.6 °F 86% 29.63 in 1.8 mi SE 3.5 mph - 0.00 in Snow Light Snow
7:27 PM 30.2 °F 25.4 °F 26.6 °F 86% 29.62 in 2.0 mi SE 4.6 mph - 0.00 in Snow Light Snow
7:48 PM 30.2 °F 25.4 °F 26.6 °F 86% 29.62 in 2.5 mi SE 4.6 mph - 0.00 in Snow Light Snow
7:53 PM 30.0 °F 25.2 °F 27.0 °F 88% 29.62 in 2.0 mi SE 4.6 mph - 0.00 in Snow Light Snow
8:11 PM 30.2 °F 22.6 °F 26.6 °F 86% 29.62 in 4.0 mi SE 8.1 mph - 0.00 in Snow Light Snow
8:36 PM 30.2 °F 26.7 °F 28.4 °F 93% 29.63 in 8.0 mi South 3.5 mph - 0.00 in   Overcast
8:45 PM 30.2 °F - 28.4 °F 93% 29.63 in 9.0 mi Calm Calm - 0.00 in   Overcast
8:53 PM 30.9 °F 27.5 °F 28.0 °F 89% 29.62 in 10.0 mi South 3.5 mph - 0.00 in   Overcast
9:53 PM 30.9 °F - 28.0 °F 89% 29.61 in 10.0 mi Calm Calm - N/A   Overcast
10:02 PM 30.2 °F - 28.4 °F 93% 29.61 in 10.0 mi Calm Calm - N/A   Overcast
10:10 PM 30.2 °F 26.7 °F 26.6 °F 86% 29.62 in 10.0 mi WNW 3.5 mph - N/A   Overcast
10:13 PM 30.2 °F 26.7 °F 26.6 °F 86% 29.62 in 10.0 mi NW 3.5 mph - N/A   Overcast
10:53 PM 30.9 °F 26.2 °F 27.0 °F 85% 29.61 in 8.0 mi WNW 4.6 mph - N/A   Overcast
11:53 PM 30.0 °F 25.2 °F 26.1 °F 85% 29.60 in 7.0 mi West 4.6 mph - N/A   Overcast